Regional Weather Roundup
Issued by NWS

Home | Current Version | Previous Version | Graphics & Text | Print | Product List | Glossary On
Versions: 1 2 3 4 5 6 7 8 9 10 11 12 13 14 15 16 17 18 19 20 21 22 23 24 25 26 27 28 29 30 31 32 33 34 35 36 37 38 39 40 41 42 43 44 45 46 47 48 49 50
000
ASUS43 KLMK 230002
RWRKY
KENTUCKY REGIONAL WEATHER ROUNDUP
NATIONAL WEATHER SERVICE LOUISVILLE KY
800 PM EDT WED OCT 22 2014

NOTE "FAIR" INDICATES FEW OR NO CLOUDS BELOW 12,000 FEET
WITH NO SIGNIFICANT WEATHER AND/OR OBSTRUCTIONS TO VISIBILITY.

KYZ001>023-026-027-061>063-070>075-230100-
WESTERN AND SOUTH CENTRAL KENTUCKY

CITY           SKY/WX    TMP DP  RH WIND       PRES   REMARKS
PADUCAH        CLEAR     52  42  69 E3        30.21S
HENDERSON      CLEAR    N/A N/A N/A CALM      30.23R
OWENSBORO      CLEAR     57  42  57 CALM      30.23S
HOPKINSVILLE   CLEAR     53  41  65 N3        30.22R
BOWLING GREEN  CLEAR     52  40  63 NE3       30.22S
GLASGOW        CLEAR     48  41  75 CALM      30.23R HAZE
$$

KYZ024-025-028>034-038-045-046-053-230100-
NORTH CENTRAL KENTUCKY

CITY           SKY/WX    TMP DP  RH WIND       PRES   REMARKS
LOUISVILLE/SDF CLEAR     55  41  59 E12       30.24R
LOUISVILLE/LOU CLEAR     54  41  61 E7        30.26R
FORT KNOX      NOT AVBL
$$

KYZ035>037-039>044-047>052-055>060-089>105-230100-
NORTHEAST KENTUCKY

CITY           SKY/WX    TMP DP  RH WIND       PRES   REMARKS
LEXINGTON      CLOUDY    53  40  61 NE9       30.25R
COVINGTON      MOCLDY    51  39  63 E7        30.26R
FRANKFORT      CLEAR     51  40  65 NE3       30.24S
$$

KYZ054-064>069-076>088-106>120-230100-
SOUTHEAST KENTUCKY

CITY           SKY/WX    TMP DP  RH WIND       PRES   REMARKS
JACKSON        CLOUDY    48  41  76 CALM      30.24R
LONDON         CLOUDY    49  40  71 NW3       30.24F
SOMERSET       CLOUDY    46  37  71 CALM      30.27S
MIDDLESBORO    CLOUDY    49  41  75 CALM      30.24S
MONTICELLO     CLOUDY    48  41  77 CALM      30.27S
$$




USA.gov is the U.S. government's official web portal to all federal, state and local government web resources and services.